Miscellaneous Local Product
Issued by NWS North Platte, NE

Home | Current Version | Previous Version | Graphics & Text | Print | Product List | Glossary On
Versions: 1 2 3 4 5 6 7 8 9 10 11 12 13 14 15 16 17 18 19 20 21 22 23 24 25 26 27 28 29 30 31 32 33 34 35 36 37 38 39 40 41 42 43 44 45 46 47 48 49 50
000
AXUS43 KLBF 270510
MISLBF


WESTERN AND NORTH CENTRAL NEBRASKA HOURLY WEATHER ROUNDUP
NATIONAL WEATHER SERVICE NORTH PLATTE NE
1100 PM CST THU FEB 26 2015

***STATIONS NOT REPORTING VARIABLES SUCH AS SKY/WEATHER OR
PRESSURE ARE PROVIDED BY THE NEBRASKA DEPARTMENT OF
ROADS...RAWS...AND APRS NETWORKS...AND ARE NOT UNDER
NATIONAL WEATHER SERVICE QUALITY CONTROL***

...OBSERVATIONS IN AND NEAR THE EASTERN PANHANDLE OF NEBRASKA...

CITY           SKY/WX    TMP DP  RH WIND       PRES   REMARKS
PINE RIDGE     CLEAR     -2  -8  76 E3        30.37S
CHADRON        CLEAR     -5 -11  75 W3        30.37F
ALLIANCE       CLEAR      2  -4  76 E3        30.31R
SIDNEY         CLOUDY     9   0  67 E10       30.27F WCI  -5
WHITECLAY        N/A     -4 -10  74 SE3         N/A
CRESCENT LAKE    N/A      4  -6  62 E7          N/A  WCI  -8
LISCO            N/A     13  -2  50 E8          N/A  WCI   2
BIG SPRINGS      N/A      9   1  68 E6          N/A  WCI  -1
LEWELLEN         N/A      5  -6  62 E3          N/A
$$

...OBSERVATIONS IN NORTH CENTRAL NEBRASKA...

CITY           SKY/WX    TMP DP  RH WIND       PRES   REMARKS
THEDFORD       CLEAR      2  -4  77 CALM      30.43S
AINSWORTH      CLEAR      2  -4  75 NW3       30.45S
O`NEILL        CLEAR      0  -6  74 N5        30.50S WCI -10
ORD            CLEAR     -2  -8  76 SW3       30.50R
BROKEN BOW     CLEAR     -5 -10  79 N5        30.46R WCI -16
BROWNLEE         N/A     -2  -7  79 CALM        N/A
SPRINGVIEW       N/A     -4  -9  80 CALM        N/A
BREWSTER         N/A      2  -3  82 CALM        N/A
ROSE             N/A      8   5  88 CALM        N/A
NEWPORT          N/A      8   3  78 CALM        N/A
SARGENT          N/A      1  -3  82 CALM        N/A
COMSTOCK         N/A      2  -6  71 CALM        N/A
CHAMBERS         N/A     -2 -18  46 CALM        N/A
EWING            N/A     -2  -8  76 CALM        N/A
$$

...OBSERVATIONS IN SOUTHWEST NEBRASKA AND FAR NORTHEAST COLORADO...

CITY           SKY/WX    TMP DP  RH WIND       PRES   REMARKS
WRAY           CLOUDY    15   4  61 E9        30.33F WCI   4
IMPERIAL         N/A      8  -2  63 E7        30.38S WCI  -3
OGALLALA       CLEAR      7  -3  63 E6        30.39S WCI  -3
MCCOOK         CLEAR      8  -3  61 NE6       30.45S WCI  -2
LEXINGTON      CLEAR      4  -5  66 NE7       30.48S WCI  -9
PAXTON           N/A      3  -6  67 E3          N/A
BRADY            N/A      2  -7  66 CALM        N/A
GOTHENBURG       N/A      4  -6  62 N3          N/A
CALLAWAY         N/A      1  -6  73 E3          N/A
$$

...NORTH PLATTE AREA...

CITY           SKY/WX    TMP DP  RH WIND       PRES   REMARKS
DOWNTOWN         N/A      4  -6  64 CALM        N/A
$$

...SOME WEATHER OBSERVATIONS FROM AROUND THE REGION...

CITY           SKY/WX    TMP DP  RH WIND       PRES   REMARKS
DENVER         LGT SNOW  12   8  84 SE21      30.10F BLWGSNOWWCI  -7
LARAMIE        CLOUDY     3  -3  76 SE18G26   29.93F WCI -17
CHEYENNE       LGT SNOW   7   3  84 S13       30.06F FOG     WCI  -9
SCOTTSBLUFF    CLOUDY     8   0  69 SE10      30.30S WCI  -6
RAPID CITY     CLEAR     -9 -15  75 NW5       30.37F WCI -20
PIERRE         CLEAR     -1  -8  72 CALM      30.51F
WINNER         FAIR       2  -8  63 CALM      30.50S
SIOUX FALLS    CLEAR     -5 -11  75 CALM      30.52S
OMAHA          CLEAR      3  -2  79 N5        30.59S WCI  -6
GRAND ISLAND   FAIR       1  -5  75 N5        30.53S WCI  -9
KANSAS CITY    CLEAR      6  -3  66 N13       30.57S WCI -10
WICHITA        MOCLDY    16  -1  47 NE10      30.53R WCI   4
HAYS           FAIR      10  -9  40 E7        30.48R WCI   0
LIBERAL        CLOUDY    19   1  45 E9        30.40R WCI   9
GOODLAND       FLURRIES  15   6  67 SE9       30.34R WCI   3
$$



USA.gov is the U.S. government's official web portal to all federal, state and local government web resources and services.